FW1692 Warrington UK current weather conditions

sailwx.info

Wind from 269 at 4 knots gusting 7

Air temperature 11.7° C
Dewpoint 10.6° C

Last reported at 2020-Jul-10 06:09 UTC.
Time now 2020-Jul-10 07:15 UTC

Location: N 53°25' W 002°33'.
View on Google Maps.

See reports from other nearby stations

  
Tides and Currents Weather Stations Pressure Air Temp Water Temp Dewpoint Dewpoint Depression Visibility Wind Speed Wind Dir Waves Ship Positions
date/time (UTC)wind fromknots sea level pressurealtimeterstation pressurevisibilityair tempwater tempwave heightnotes
2020-Jul-10 06:09 269 4 gusting 7 11.7
2020-Jul-10 06:04 275 3 gusting 7 11.7
2020-Jul-10 05:59 264 2 gusting 7 11.1
2020-Jul-10 05:54 206 4 gusting 6 10.6
2020-Jul-10 05:49 281 2 gusting 7 10.6
2020-Jul-10 05:44 269 3 gusting 6 10.6
2020-Jul-10 05:39 223 4 gusting 6 10.6
2020-Jul-10 05:34 266 3 gusting 6 10.6
2020-Jul-10 05:29 278 3 gusting 7 10.6
2020-Jul-10 05:24 269 3 gusting 7 10.0
2020-Jul-10 05:19 240 3 gusting 7 10.0
2020-Jul-10 05:14 266 3 gusting 6 10.6
2020-Jul-10 05:09 289 3 gusting 6 10.6
2020-Jul-10 05:04 210 3 gusting 6 10.0
2020-Jul-10 04:59 282 3 gusting 7 10.0
2020-Jul-10 04:54 296 3 gusting 7 10.0
2020-Jul-10 04:49 248 3 gusting 6 10.0
2020-Jul-10 04:44 245 3 gusting 6 10.0
2020-Jul-10 04:39 221 3 gusting 5 10.0
2020-Jul-10 04:34 235 3 gusting 5 10.0
2020-Jul-10 04:29 258 2 gusting 5 10.0
2020-Jul-10 04:24 262 1 gusting 6 10.0
2020-Jul-10 04:19 283 1 gusting 6 9.4
2020-Jul-10 04:14 286 1 gusting 4 10.0
2020-Jul-10 04:09 276 1 gusting 3 10.0
2020-Jul-10 04:04 272 1 gusting 4 10.0
2020-Jul-10 03:59 275 1 gusting 4 10.0
2020-Jul-10 03:54 269 2 gusting 4 10.0
2020-Jul-10 03:49 266 1 gusting 4 9.4
2020-Jul-10 03:44 279 1 gusting 3 10.0
2020-Jul-10 03:39 261 1 gusting 4 10.0
2020-Jul-10 03:34 275 1 gusting 4 10.0
2020-Jul-10 03:29 281 1 gusting 3 10.0
2020-Jul-10 03:24 281 1 gusting 3 10.0
2020-Jul-10 03:19 262 1 gusting 3 10.0
2020-Jul-10 03:14 274 1 gusting 3 10.0
2020-Jul-10 03:09 278 2 gusting 4 10.0
2020-Jul-10 03:04 262 2 gusting 5 10.0
2020-Jul-10 02:59 258 2 gusting 5 10.0
2020-Jul-10 02:54 266 3 gusting 5 10.0
2020-Jul-10 02:49 269 3 gusting 6 10.0
2020-Jul-10 02:44 247 3 gusting 7 10.0
2020-Jul-10 02:39 255 2 gusting 7 10.0
2020-Jul-10 02:34 264 3 gusting 6 10.0
2020-Jul-10 02:29 262 2 gusting 6 10.0
2020-Jul-10 02:24 247 2 gusting 5 10.0
2020-Jul-10 02:19 247 1 gusting 7 10.0
2020-Jul-10 02:14 206 3 gusting 7 10.6
2020-Jul-10 02:09 288 3 gusting 4 10.6
2020-Jul-10 02:04 244 2 gusting 5 10.6
2020-Jul-10 01:59 254 2 gusting 5 10.6
2020-Jul-10 01:54 241 2 gusting 5 10.6
2020-Jul-10 01:49 275 2 gusting 4 10.6
2020-Jul-10 01:44 202 2 gusting 7 10.6
2020-Jul-10 01:39 237 2 gusting 7 11.1
2020-Jul-10 01:34 244 2 gusting 4 11.1
2020-Jul-10 01:29 234 1 gusting 4 11.7
2020-Jul-10 01:24 244 1 gusting 3 11.7
2020-Jul-10 01:19 268 1 gusting 4 11.7
2020-Jul-10 01:14 264 1 gusting 5 12.2
2020-Jul-10 01:09 262 2 gusting 5 12.2
2020-Jul-10 01:04 269 1 gusting 3 12.2
2020-Jul-10 00:59 269 1 gusting 2 12.2
2020-Jul-10 00:54 269 0 gusting 2 12.2
2020-Jul-10 00:49 269 0 gusting 3 12.2
2020-Jul-10 00:44 269 1 gusting 1 12.8
2020-Jul-10 00:39 224 0 gusting 1 12.8
2020-Jul-10 00:34 224 0 gusting 1 12.8
2020-Jul-10 00:29 224 0 gusting 2 12.8
2020-Jul-10 00:24 224 1 gusting 3 12.8
2020-Jul-10 00:19 219 1 gusting 3 12.8
2020-Jul-10 00:14 175 1 gusting 2 12.8
2020-Jul-10 00:09 290 12.8
2020-Jul-10 00:04 290 12.8
2020-Jul-09 23:59 290 0 gusting 2 12.8
2020-Jul-09 23:54 290 0 gusting 2 12.8
2020-Jul-09 23:49 290 0 gusting 1 12.8
2020-Jul-09 23:44 290 0 gusting 1 12.8
2020-Jul-09 23:39 290 12.8
2020-Jul-09 23:34 290 12.8
2020-Jul-09 23:29 290 12.8
2020-Jul-09 23:24 290 12.8
2020-Jul-09 23:19 290 12.8
2020-Jul-09 23:14 290 12.8
2020-Jul-09 23:09 290 12.8
2020-Jul-09 23:04 290 12.8
2020-Jul-09 22:59 290 12.8
2020-Jul-09 22:54 290 12.8
2020-Jul-09 22:49 290 12.8
2020-Jul-09 22:44 290 12.8
2020-Jul-09 22:39 290 12.8
2020-Jul-09 22:34 290 12.8
2020-Jul-09 22:29 290 12.8
2020-Jul-09 22:24 290 0 gusting 1 12.8
2020-Jul-09 22:19 290 12.8
2020-Jul-09 22:14 290 0 gusting 2 12.8
2020-Jul-09 22:09 290 0 gusting 2 12.8
2020-Jul-09 22:04 290 1 gusting 3 12.8
2020-Jul-09 21:59 281 1 gusting 2 12.8
2020-Jul-09 21:54 252 0 gusting 4 12.8
2020-Jul-09 21:49 252 0 gusting 4 13.3
2020-Jul-09 21:44 268 1 gusting 4 13.3
2020-Jul-09 21:39 261 1 gusting 5 13.3
2020-Jul-09 21:34 268 1 gusting 5 13.3
2020-Jul-09 21:29 266 2 gusting 5 13.3
2020-Jul-09 21:23 275 2 gusting 4 13.3
2020-Jul-09 21:19 299 2 gusting 4 13.3
2020-Jul-09 21:14 283 1 gusting 2 13.3
2020-Jul-09 21:09 283 13.3
2020-Jul-09 21:04 283 1 gusting 3 13.3
2020-Jul-09 20:59 283 0 gusting 3 13.3
2020-Jul-09 20:54 283 1 gusting 3 13.3
2020-Jul-09 20:49 290 13.3
2020-Jul-09 20:43 290 0 gusting 2 13.3
2020-Jul-09 20:39 290 0 gusting 2 13.3
2020-Jul-09 20:34 299 0 gusting 2 13.3
2020-Jul-09 20:29 299 1 gusting 2 13.3
2020-Jul-09 20:24 13.3
2020-Jul-09 20:18 13.3
2020-Jul-09 20:14 13.3
2020-Jul-09 20:09 001 13.3
2020-Jul-09 20:04 001 13.3
2020-Jul-09 19:58 001 13.3
2020-Jul-09 19:54 001 0 gusting 1 13.3
2020-Jul-09 19:48 001 13.9
2020-Jul-09 19:44 001 13.9
2020-Jul-09 19:38 001 0 gusting 1 13.9
2020-Jul-09 19:34 001 13.9
2020-Jul-09 19:29 001 0 gusting 1 13.3
2020-Jul-09 19:24 001 13.9
2020-Jul-09 19:18 001 0 gusting 2 13.9
2020-Jul-09 19:13 13.9
2020-Jul-09 19:08 13.9
2020-Jul-09 19:03 061 0 gusting 4 13.9
2020-Jul-09 18:58 348 1 gusting 4 13.9
2020-Jul-09 18:53 334 1 gusting 2 13.9
2020-Jul-09 18:48 341 0 gusting 2 13.9
2020-Jul-09 18:43 340 0 gusting 2 13.9
2020-Jul-09 18:38 357 1 gusting 2 13.9
2020-Jul-09 18:33 357 0 gusting 2 13.9
2020-Jul-09 18:28 13.9
2020-Jul-09 18:23 13.9
2020-Jul-09 18:18 13.9
2020-Jul-09 18:13 13.9
2020-Jul-09 18:09 348 0 gusting 3 13.9
2020-Jul-09 18:03 357 0 gusting 4 13.9
2020-Jul-09 17:58 355 2 gusting 4 13.9
2020-Jul-09 17:54 018 0 gusting 6 13.9
2020-Jul-09 17:48 013 1 gusting 6 13.9
2020-Jul-09 17:43 348 1 gusting 3 13.9
2020-Jul-09 17:38 341 0 gusting 4 13.9
2020-Jul-09 17:33 340 1 gusting 4 13.9
2020-Jul-09 17:28 357 1 gusting 5 13.9
2020-Jul-09 17:23 343 2 gusting 5 13.9
2020-Jul-09 17:18 350 1 gusting 6 14.4
2020-Jul-09 17:13 337 0 gusting 6 14.4
2020-Jul-09 17:08 14.4
2020-Jul-09 17:03 357 0 gusting 5 14.4
2020-Jul-09 16:58 001 0 gusting 4 14.4
2020-Jul-09 16:53 14.4
2020-Jul-09 16:48 14.4
2020-Jul-09 16:44 333 0 gusting 5 14.4
2020-Jul-09 16:38 345 2 gusting 4 14.4
2020-Jul-09 16:34 344 0 gusting 4 14.4
2020-Jul-09 16:28 344 2 gusting 4 14.4
2020-Jul-09 16:23 14.4
2020-Jul-09 16:18 006 1 gusting 6 14.4
2020-Jul-09 16:13 072 1 gusting 8 14.4
2020-Jul-09 16:08 013 3 gusting 8 14.4
2020-Jul-09 16:03 039 2 gusting 6 14.4
2020-Jul-09 15:58 056 2 gusting 6 14.4
2020-Jul-09 15:53 333 0 gusting 5 14.4
2020-Jul-09 15:48 357 1 gusting 5 14.4
2020-Jul-09 15:43 037 2 gusting 6 15.0
2020-Jul-09 15:38 15.0
2020-Jul-09 15:33 337 2 gusting 7 15.0
2020-Jul-09 15:28 049 2 gusting 6 15.0
2020-Jul-09 15:23 071 3 gusting 6 15.0
2020-Jul-09 15:18 010 2 gusting 7 15.0
2020-Jul-09 15:13 003 3 gusting 7 15.0
2020-Jul-09 15:08 15.0
2020-Jul-09 15:03 15.0
2020-Jul-09 14:58 310 2 gusting 7 15.0
2020-Jul-09 14:53 066 3 gusting 7 15.0
2020-Jul-09 14:48 327 1 gusting 4 15.0
2020-Jul-09 14:43 338 2 gusting 4 15.0
2020-Jul-09 14:38 063 1 gusting 7 15.0
2020-Jul-09 14:34 082 3 gusting 7 15.0
2020-Jul-09 14:28 358 3 gusting 7 15.0
2020-Jul-09 14:23 345 2 gusting 7 15.0
2020-Jul-09 14:18 353 2 gusting 5 15.0
2020-Jul-09 14:13 008 1 gusting 5 15.0
2020-Jul-09 14:08 018 0 gusting 5 15.0
2020-Jul-09 14:03 357 15.0
2020-Jul-09 13:58 347 2 gusting 6 15.0
2020-Jul-09 13:53 355 2 gusting 6 15.0
2020-Jul-09 13:48 016 3 gusting 7 15.0
2020-Jul-09 13:43 090 3 gusting 7 15.0
2020-Jul-09 13:38 039 2 gusting 5 15.0
2020-Jul-09 13:33 032 2 gusting 6 15.0
2020-Jul-09 13:28 082 3 gusting 7 15.0
2020-Jul-09 13:23 350 2 gusting 7 15.0
2020-Jul-09 13:18 058 3 gusting 7 15.0
2020-Jul-09 13:13 358 3 gusting 7 15.0
2020-Jul-09 13:08 337 1 gusting 7 15.0
2020-Jul-09 13:03 083 1 gusting 7 15.0
2020-Jul-09 12:58 055 3 gusting 7 15.0
2020-Jul-09 12:53 358 1 gusting 4 15.0
2020-Jul-09 12:48 039 0 gusting 5 15.0
2020-Jul-09 12:43 15.0
2020-Jul-09 12:38 023 1 gusting 8 15.6
2020-Jul-09 12:33 027 1 gusting 10 15.6
2020-Jul-09 12:28 037 1 gusting 10 15.6
2020-Jul-09 12:23 035 2 gusting 8 15.6
2020-Jul-09 12:18 15.0
2020-Jul-09 12:13 037 3 gusting 8 15.6
2020-Jul-09 12:08 15.6
2020-Jul-09 12:03 358 4 gusting 7 15.6
2020-Jul-09 11:58 016 2 gusting 7 15.6
2020-Jul-09 11:53 15.6
2020-Jul-09 11:48 080 4 gusting 8 15.6
2020-Jul-09 11:43 350 1 gusting 6 15.6
2020-Jul-09 11:38 068 3 gusting 9 15.6
2020-Jul-09 11:33 076 4 gusting 9 15.6
2020-Jul-09 11:28 358 2 gusting 7 15.6
2020-Jul-09 11:23 054 4 gusting 11 15.6
2020-Jul-09 11:18 056 6 gusting 11 15.6
2020-Jul-09 11:13 038 4 gusting 9 15.6
2020-Jul-09 11:08 011 3 gusting 9 16.1
2020-Jul-09 11:03 348 3 gusting 12 16.1
2020-Jul-09 10:58 258 2 gusting 12 16.1
2020-Jul-09 10:53 068 3 gusting 7 16.1
2020-Jul-09 10:48 357 5 gusting 7 16.1
2020-Jul-09 10:43 078 1 gusting 7 16.1
2020-Jul-09 10:38 330 3 gusting 5 16.1
2020-Jul-09 10:33 302 0 gusting 6 15.6
2020-Jul-09 10:28 068 3 gusting 7 15.6
2020-Jul-09 10:23 148 4 gusting 8 15.6
2020-Jul-09 10:18 047 3 gusting 9 15.6
2020-Jul-09 10:13 034 5 gusting 9 15.6
2020-Jul-09 10:08 042 3 gusting 10 15.6
2020-Jul-09 10:04 355 3 gusting 10 15.6
2020-Jul-09 09:58 068 4 gusting 8 15.0
2020-Jul-09 09:53 230 1 gusting 10 15.0
2020-Jul-09 09:48 052 5 gusting 8 15.0
2020-Jul-09 09:43 096 0 gusting 8 15.0
2020-Jul-09 09:38 027 3 gusting 8 15.0
2020-Jul-09 09:33 15.0
2020-Jul-09 09:28 357 4 gusting 9 15.0
2020-Jul-09 09:23 056 3 gusting 9 14.4
2020-Jul-09 09:18 066 4 gusting 10 14.4
2020-Jul-09 09:13 083 4 gusting 10 14.4
2020-Jul-09 09:08 047 3 gusting 8 13.9
2020-Jul-09 09:03 063 3 gusting 8 13.9
2020-Jul-09 08:58 013 3 gusting 8 13.3
2020-Jul-09 08:53 100 3 gusting 8 13.3
2020-Jul-09 08:48 048 2 gusting 8 13.3
2020-Jul-09 08:43 336 2 gusting 8 12.8
2020-Jul-09 08:38 351 3 gusting 10 12.8
2020-Jul-09 08:33 041 3 gusting 10 12.8
2020-Jul-09 08:28 347 2 gusting 9 12.8
2020-Jul-09 08:23 041 2 gusting 5 12.8
2020-Jul-09 08:18 017 3 gusting 10 12.8
2020-Jul-09 08:13 12.8
2020-Jul-09 08:08 071 2 gusting 9 12.8
2020-Jul-09 08:03 068 1 gusting 9 12.8
2020-Jul-09 07:58 049 2 gusting 6 12.8
2020-Jul-09 07:53 041 2 gusting 9 12.8
2020-Jul-09 07:48 12.8
2020-Jul-09 07:43 063 1 gusting 8 12.2
2020-Jul-09 07:38 12.2
2020-Jul-09 07:33 003 3 gusting 9 12.2
2020-Jul-09 07:28 076 4 gusting 9 12.2
2020-Jul-09 07:23 340 2 gusting 7 12.2
2020-Jul-09 07:18 011 4 gusting 7 12.2
2020-Jul-09 07:13 312 1 gusting 6 12.2
2020-Jul-09 07:08 080 3 gusting 6 11.7
2020-Jul-09 07:03 028 3 gusting 6 11.7
2020-Jul-09 06:58 357 3 gusting 6 12.2
2020-Jul-09 06:53 016 1 gusting 9 12.2
2020-Jul-09 06:48 017 3 gusting 9 11.7
2020-Jul-09 06:43 020 1 gusting 7 11.7
2020-Jul-09 06:38 340 4 gusting 8 11.7
2020-Jul-09 06:33 068 2 gusting 8 11.7
2020-Jul-09 06:28 11.7
2020-Jul-09 06:23 326 2 gusting 6 11.7
2020-Jul-09 06:18 096 2 gusting 5 11.7
2020-Jul-09 06:13 076 1 gusting 5 11.7
2020-Jul-09 06:08 014 2 gusting 7 11.7
2020-Jul-09 06:03 045 2 gusting 7 11.7
2020-Jul-09 05:58 11.7
2020-Jul-09 05:53 037 2 gusting 7 11.7
2020-Jul-09 05:48 007 4 gusting 8 11.7
2020-Jul-09 05:43 354 3 gusting 8 11.7
2020-Jul-09 05:38 11.7
2020-Jul-09 05:33 336 2 gusting 7 11.7
2020-Jul-09 05:28 092 3 gusting 7 11.7
2020-Jul-09 05:23 011 1 gusting 7 11.7
2020-Jul-09 05:18 037 3 gusting 8 11.7
2020-Jul-09 05:13 030 1 gusting 8 11.7
2020-Jul-09 05:08 047 2 gusting 8 11.7
2020-Jul-09 05:03 027 4 gusting 8 11.7
2020-Jul-09 04:58 337 4 gusting 8 11.7
2020-Jul-09 04:53 021 3 gusting 8 11.7
2020-Jul-09 04:48 344 3 gusting 9 11.7
2020-Jul-09 04:43 345 1 gusting 10 11.7
2020-Jul-09 04:38 100 4 gusting 10 11.7
2020-Jul-09 04:33 340 3 gusting 7 12.2
2020-Jul-09 04:28 003 3 gusting 7 12.2
2020-Jul-09 04:23 12.2
2020-Jul-09 04:18 008 1 gusting 5 12.2
2020-Jul-09 04:13 12.2
2020-Jul-09 04:08 354 1 gusting 4 12.2
2020-Jul-09 04:03 341 1 gusting 6 12.2
2020-Jul-09 03:58 054 2 gusting 7 12.2
2020-Jul-09 03:53 061 1 gusting 7 12.8
2020-Jul-09 03:48 047 1 gusting 6 12.8
2020-Jul-09 03:43 011 2 gusting 7 12.8
2020-Jul-09 03:38 353 2 gusting 6 12.8
2020-Jul-09 03:33 028 1 gusting 5 12.8
2020-Jul-09 03:28 345 2 gusting 5 12.8
2020-Jul-09 03:23 083 2 gusting 5 12.8
2020-Jul-09 03:18 345 1 gusting 6 12.8
2020-Jul-09 03:13 066 2 gusting 6 12.8
2020-Jul-09 03:08 12.8
2020-Jul-09 03:03 12.8
2020-Jul-09 02:58 063 1 gusting 5 12.8
2020-Jul-09 02:53 305 2 gusting 5 13.3
2020-Jul-09 02:48 028 1 gusting 4 13.3
2020-Jul-09 02:43 354 1 gusting 4 13.3
2020-Jul-09 02:38 006 2 gusting 4 13.3
2020-Jul-09 02:33 011 0 gusting 3 13.3
2020-Jul-09 02:28 13.3
2020-Jul-09 02:23 014 13.3
2020-Jul-09 02:18 014 1 gusting 3 13.3
2020-Jul-09 02:13 030 1 gusting 3 13.3
2020-Jul-09 02:08 354 0 gusting 5 13.3
2020-Jul-09 02:03 358 2 gusting 5 13.3
2020-Jul-09 01:58 307 1 gusting 4 13.3
2020-Jul-09 01:53 261 1 gusting 5 13.3
2020-Jul-09 01:48 13.3
2020-Jul-09 01:43 044 13.3
2020-Jul-09 01:38 044 0 gusting 3 13.3
2020-Jul-09 01:33 044 1 gusting 3 13.3
2020-Jul-09 01:28 047 0 gusting 2 13.3
2020-Jul-09 01:23 047 1 gusting 3 13.3
2020-Jul-09 01:18 048 1 gusting 3 13.3
2020-Jul-09 01:13 047 0 gusting 1 13.3
2020-Jul-09 01:08 048 0 gusting 1 13.3
2020-Jul-09 01:03 047 0 gusting 2 13.3
2020-Jul-09 00:58 047 0 gusting 2 13.3
2020-Jul-09 00:53 047 13.3
2020-Jul-09 00:48 047 13.3
2020-Jul-09 00:43 047 13.3
2020-Jul-09 00:38 047 13.3
2020-Jul-09 00:33 047 0 gusting 4 13.3
2020-Jul-09 00:28 049 13.3
2020-Jul-09 00:23 049 0 gusting 2 13.3
2020-Jul-09 00:18 049 0 gusting 2 13.3
2020-Jul-09 00:13 051 0 gusting 1 13.3
2020-Jul-09 00:08 051 13.3
2020-Jul-09 00:03 052 0 gusting 2 13.3
2020-Jul-08 23:58 052 1 gusting 2 13.3
2020-Jul-08 23:53 052 0 gusting 1 13.3
2020-Jul-08 23:48 052 13.3
2020-Jul-08 23:43 052 0 gusting 2 13.3
2020-Jul-08 23:38 052 0 gusting 3 13.3
2020-Jul-08 23:33 049 0 gusting 2 13.3
2020-Jul-08 23:28 051 13.3
2020-Jul-08 23:23 051 0 gusting 3 13.3
2020-Jul-08 23:18 051 0 gusting 3 13.3
2020-Jul-08 23:13 051 13.3
2020-Jul-08 23:08 051 13.3
2020-Jul-08 23:03 051 0 gusting 1 13.3
2020-Jul-08 22:58 051 13.3
2020-Jul-08 22:53 051 0 gusting 1 13.3
2020-Jul-08 22:48 049 13.3
2020-Jul-08 22:43 051 0 gusting 2 13.3
2020-Jul-08 22:38 051 0 gusting 2 13.3
2020-Jul-08 22:33 049 0 gusting 2 13.3
2020-Jul-08 22:28 049 0 gusting 2 13.3
2020-Jul-08 22:23 049 0 gusting 2 13.3
2020-Jul-08 22:18 049 0 gusting 2 13.3
2020-Jul-08 22:13 049 13.3
2020-Jul-08 22:08 049 13.3
2020-Jul-08 22:03 049 13.3
2020-Jul-08 21:58 049 13.3
2020-Jul-08 21:53 049 13.3
2020-Jul-08 21:48 049 13.3
2020-Jul-08 21:43 049 13.3
2020-Jul-08 21:38 049 13.3
2020-Jul-08 21:33 049 0 gusting 2 13.3
2020-Jul-08 21:28 049 13.3
2020-Jul-08 21:23 049 13.3
2020-Jul-08 21:18 049 0 gusting 2 13.3
2020-Jul-08 21:13 049 0 gusting 2 13.3
2020-Jul-08 21:08 049 13.3
2020-Jul-08 21:03 049 0 gusting 2 13.3
2020-Jul-08 20:58 028 0 gusting 2 13.3
2020-Jul-08 20:53 028 13.3
2020-Jul-08 20:48 028 13.3
2020-Jul-08 20:43 355 0 gusting 4 13.3
2020-Jul-08 20:38 355 0 gusting 4 13.3
2020-Jul-08 20:33 041 1 gusting 3 13.3
2020-Jul-08 20:28 041 0 gusting 2 13.3
2020-Jul-08 20:23 041 0 gusting 2 13.3
2020-Jul-08 20:18 041 1 gusting 3 13.3
2020-Jul-08 20:13 041 0 gusting 4 13.3
2020-Jul-08 20:08 039 0 gusting 4 13.3
2020-Jul-08 20:03 037 13.9
2020-Jul-08 19:58 037 0 gusting 3 13.9
2020-Jul-08 19:53 039 1 gusting 3 13.9
2020-Jul-08 19:43 045 0 gusting 3 13.9
2020-Jul-08 19:38 045 0 gusting 3 13.9
2020-Jul-08 19:33 045 1 gusting 3 13.9
2020-Jul-08 19:28 047 0 gusting 3 13.9
2020-Jul-08 19:18 039 0 gusting 1 13.9
2020-Jul-08 19:13 039 0 gusting 2 13.9
2020-Jul-08 19:08 039 0 gusting 3 13.9
2020-Jul-08 19:03 039 13.9
2020-Jul-08 18:58 062 0 gusting 2 13.9
2020-Jul-08 18:53 061 0 gusting 1 13.9
2020-Jul-08 18:48 059 0 gusting 3 13.9
2020-Jul-08 18:43 058 13.9
2020-Jul-08 18:38 085 13.9
2020-Jul-08 18:33 086 0 gusting 3 14.4
2020-Jul-08 18:28 063 0 gusting 2 14.4
2020-Jul-08 18:23 062 0 gusting 3 14.4
2020-Jul-08 18:18 083 1 gusting 3 14.4
2020-Jul-08 18:13 062 1 gusting 4 14.4
2020-Jul-08 18:08 337 0 gusting 5 14.4
2020-Jul-08 18:03 107 0 gusting 3 14.4
2020-Jul-08 17:58 090 0 gusting 2 14.4
2020-Jul-08 17:53 090 14.4
2020-Jul-08 17:48 090 14.4
2020-Jul-08 17:43 090 0 gusting 3 14.4
2020-Jul-08 17:38 15.0
2020-Jul-08 17:33 073 0 gusting 3 15.0
2020-Jul-08 17:28 114 0 gusting 3 15.0
2020-Jul-08 17:23 113 15.0
2020-Jul-08 17:18 118 0 gusting 3 15.0
2020-Jul-08 17:13 092 0 gusting 3 15.0
2020-Jul-08 17:08 104 0 gusting 3 15.0
2020-Jul-08 17:03 089 1 gusting 3 15.0
2020-Jul-08 16:58 15.0
2020-Jul-08 16:53 109 1 gusting 4 15.6
2020-Jul-08 16:48 054 0 gusting 4 15.6
2020-Jul-08 16:43 118 1 gusting 4 15.6
2020-Jul-08 16:38 097 1 gusting 5 15.6
2020-Jul-08 16:33 096 0 gusting 5 15.6
2020-Jul-08 16:28 110 1 gusting 3 15.6
2020-Jul-08 16:23 079 0 gusting 5 15.6
2020-Jul-08 16:18 102 1 gusting 3 15.6
2020-Jul-08 16:13 111 0 gusting 4 15.6
2020-Jul-08 16:08 124 1 gusting 4 15.6
2020-Jul-08 16:03 097 0 gusting 5 16.1
2020-Jul-08 15:58 027 1 gusting 6 16.1
2020-Jul-08 15:53 061 1 gusting 6 16.1
2020-Jul-08 15:48 348 0 gusting 3 16.1
2020-Jul-08 15:43 069 1 gusting 3 16.1
2020-Jul-08 15:38 099 1 gusting 4 16.1
2020-Jul-08 15:33 073 1 gusting 4 16.1
2020-Jul-08 15:28 113 1 gusting 4 16.1
2020-Jul-08 15:23 047 1 gusting 2 16.1
2020-Jul-08 15:18 093 0 gusting 4 16.1
2020-Jul-08 15:13 109 0 gusting 6 16.1
2020-Jul-08 15:08 083 0 gusting 5 16.1
2020-Jul-08 15:03 154 2 gusting 5 16.7
2020-Jul-08 14:58 114 1 gusting 4 16.7
2020-Jul-08 14:53 082 1 gusting 5 16.7
2020-Jul-08 14:48 107 1 gusting 6 16.7
2020-Jul-08 14:43 117 2 gusting 6 16.7
2020-Jul-08 14:38 094 1 gusting 5 16.7
2020-Jul-08 14:33 130 1 gusting 4 16.7
2020-Jul-08 14:28 106 0 gusting 5 16.7
2020-Jul-08 14:23 100 0 gusting 6 16.7
2020-Jul-08 14:18 090 2 gusting 6 16.7
2020-Jul-08 14:13 316 1 gusting 4 16.1
2020-Jul-08 14:08 137 1 gusting 4 16.1
2020-Jul-08 14:03 086 0 gusting 3 16.1
2020-Jul-08 13:58 047 1 gusting 4 16.1
2020-Jul-08 13:53 111 1 gusting 4 16.1
2020-Jul-08 13:48 096 1 gusting 3 16.1
2020-Jul-08 13:43 127 16.1
2020-Jul-08 13:38 102 1 gusting 7 16.1
2020-Jul-08 13:33 121 0 gusting 4 16.1
2020-Jul-08 13:28 092 0 gusting 4 16.1
2020-Jul-08 13:23 102 0 gusting 5 16.1
2020-Jul-08 13:18 079 1 gusting 4 16.1
2020-Jul-08 13:13 116 2 gusting 4 16.1
2020-Jul-08 13:08 111 2 gusting 4 16.1
2020-Jul-08 13:03 109 0 gusting 5 16.1
2020-Jul-08 12:58 107 1 gusting 6 15.6
2020-Jul-08 12:53 106 3 gusting 6 15.6
2020-Jul-08 12:48 140 1 gusting 5 15.6
2020-Jul-08 12:43 087 2 gusting 7 15.6
2020-Jul-08 12:38 082 3 gusting 7 15.6
2020-Jul-08 12:33 100 1 gusting 5 15.6
2020-Jul-08 12:28 110 0 gusting 4 15.6
2020-Jul-08 12:23 107 1 gusting 5 15.6
2020-Jul-08 12:18 096 1 gusting 5 15.6
2020-Jul-08 12:13 15.6
2020-Jul-08 12:08 082 2 gusting 5 15.6
2020-Jul-08 12:03 086 2 gusting 5 16.1
2020-Jul-08 11:58 048 0 gusting 5 15.6
2020-Jul-08 11:53 092 1 gusting 5 15.6
2020-Jul-08 11:48 013 1 gusting 3 15.6
2020-Jul-08 11:43 030 1 gusting 4 15.6
2020-Jul-08 11:38 110 0 gusting 4 15.6
2020-Jul-08 11:33 113 1 gusting 3 15.6
2020-Jul-08 11:28 109 0 gusting 4 15.6
2020-Jul-08 11:23 069 1 gusting 4 15.6
2020-Jul-08 11:18 071 1 gusting 5 15.6
2020-Jul-08 11:13 075 1 gusting 5 15.6
2020-Jul-08 11:08 052 1 gusting 4 16.1
2020-Jul-08 11:03 051 1 gusting 6 16.1
2020-Jul-08 10:58 124 1 gusting 6 16.1
2020-Jul-08 10:53 069 1 gusting 5 15.6
2020-Jul-08 10:48 15.6
2020-Jul-08 10:43 044 1 gusting 4 15.6
2020-Jul-08 10:38 063 1 gusting 4 15.6
2020-Jul-08 10:33 072 1 gusting 7 15.6
2020-Jul-08 10:28 042 2 gusting 7 15.6
2020-Jul-08 10:23 063 1 gusting 6 16.1
2020-Jul-08 10:18 124 2 gusting 6 16.1
2020-Jul-08 10:13 16.1
2020-Jul-08 10:08 024 2 gusting 6 15.6
2020-Jul-08 10:03 024 1 gusting 5 15.6
2020-Jul-08 09:58 351 1 gusting 7 15.6
2020-Jul-08 09:53 15.0
2020-Jul-08 09:48 020 1 gusting 6 15.0
2020-Jul-08 09:43 054 1 gusting 6 15.0
2020-Jul-08 09:38 071 1 gusting 4 14.4
2020-Jul-08 09:33 341 1 gusting 6 14.4
2020-Jul-08 09:28 320 1 gusting 5 14.4
2020-Jul-08 09:23 054 0 gusting 4 14.4
2020-Jul-08 09:18 063 1 gusting 5 14.4
2020-Jul-08 09:13 336 2 gusting 5 14.4
2020-Jul-08 09:08 058 0 gusting 4 14.4
2020-Jul-08 09:03 058 1 gusting 5 13.9
2020-Jul-08 08:58 039 1 gusting 5 13.9
2020-Jul-08 08:53 089 3 gusting 5 13.9
2020-Jul-08 08:48 006 1 gusting 5 13.9
2020-Jul-08 08:43 038 1 gusting 5 13.3
2020-Jul-08 08:38 353 3 gusting 5 13.3
2020-Jul-08 08:33 329 1 gusting 5 13.3
2020-Jul-08 08:28 039 1 gusting 5 13.3
2020-Jul-08 08:23 048 3 gusting 5 13.3
2020-Jul-08 08:18 316 2 gusting 9 13.3
2020-Jul-08 08:13 118 3 gusting 7 12.8
2020-Jul-08 08:08 071 3 gusting 6 12.8
2020-Jul-08 08:03 340 2 gusting 6 13.3
2020-Jul-08 07:58 016 1 gusting 6 13.3
2020-Jul-08 07:53 034 1 gusting 4 12.8
2020-Jul-08 07:48 020 2 gusting 4 12.8
2020-Jul-08 07:43 094 2 gusting 5 12.8
2020-Jul-08 07:38 027 3 gusting 7 12.8
2020-Jul-08 07:33 035 4 gusting 7 12.8
2020-Jul-08 07:28 028 0 gusting 6 12.8
2020-Jul-08 07:23 028 2 gusting 6 12.8
2020-Jul-08 07:18 072 1 gusting 5 12.8
2020-Jul-08 07:13 025 2 gusting 6 12.8
2020-Jul-08 07:08 054 1 gusting 5 12.8
2020-Jul-08 07:03 037 3 gusting 5 12.8